Regional Weather Roundup
Issued by NWS

Home | Current Version | Previous Version | Graphics & Text | Print | Product List | Glossary On
Versions: 1 2 3 4 5 6 7 8 9 10 11 12 13 14 15 16 17 18 19 20 21 22 23 24 25 26 27 28 29 30 31 32 33 34 35 36 37 38 39 40 41 42 43 44 45 46 47 48 49 50
000
ASUS43 KFSD 261402
RWRSD

WEATHER ROUNDUP FOR SOUTH DAKOTA
NATIONAL WEATHER SERVICE SIOUX FALLS SD
900 AM CDT MON SEP 26 2016

NOTE: "FAIR" INDICATES FEW OR NO CLOUDS BELOW 12,000 FEET WITH NO
SIGNIFICANT WEATHER AND/OR OBSTRUCTIONS TO VISIBILITY.


SDZ001>005-009-010-012>017-261500-
NORTHWEST AND NORTH CENTRAL SOUTH DAKOTA

CITY           SKY/WX    TMP DP  RH WIND       PRES   REMARKS
BUFFALO          N/A     46  40  79 W7        30.18S
FAITH            N/A     49  41  74 W10       30.22S
MOBRIDGE       SUNNY     50  39  66 NW10      30.16S
$$

SDZ012>016-024>037-041>051-057-063-072>074-261500-
SOUTHWEST AND SOUTH CENTRAL SOUTH DAKOTA

CITY           SKY/WX    TMP DP  RH WIND       PRES   REMARKS
RAPID CTY ARPT SUNNY     51  39  63 W5        30.28R
PIERRE         SUNNY     47  37  68 VRB3      30.20S
CUSTER         SUNNY     48  34  58 W6        30.36R
ELLSWORTH AFB  SUNNY     52  41  66 W7        30.27R
PHILIP         SUNNY     46  35  65 W14       30.25R
PINE RIDGE     SUNNY     40  33  76 CALM      30.32R
WINNER         FAIR      53  38  56 SW3       30.24R
$$

SDZ004>011-016>023-039-040-261500-
NORTHEAST SOUTH DAKOTA

CITY           SKY/WX    TMP DP  RH WIND       PRES   REMARKS
ABERDEEN       SUNNY     48  37  65 W12       30.14S
WATERTOWN      SUNNY     50  37  61 NW14G21   30.11R
SISSETON         N/A     54  36  50 NW20      30.05S
$$

SDZ017-020-022-023-036>040-048>070-261500-
SOUTHEAST SOUTH DAKOTA

CITY           SKY/WX    TMP DP  RH WIND       PRES   REMARKS
SIOUX FALLS    MOSUNNY   51  39  63 W8        30.17R
HURON          SUNNY     51  39  63 W14       30.17S
CHAMBERLAIN    SUNNY     51  38  61 W9        30.22S
MITCHELL       SUNNY     50  39  66 W9        30.20S
YANKTON        SUNNY     54  37  54 W12       30.20S
$$

ABBREVIATIONS USED IN REMARKS
   TC - TEMPERATURE IN CELSIUS
  WCI - WIND CHILL INDEX
   HX - HEAT INDEX
  VSB - VISIBILITY





USA.gov is the U.S. government's official web portal to all federal, state and local government web resources and services.